Total_Precipitation_Accumulation
0.87 0.86 0.77 0.69 0.63 0.58 0.55 0.50 0.43 0.38 0.32 0.27 0.25 0.24 0.24 0.22 0.20 0.21 0.20 0.16 0.15 0.20 0.30 0.40 0.48 0.54 0.56 0.57 0.54 0.52 0.48 0.43 0.38 0.34 0.31 0.28 0.25 0.22 0.22 0.22 0.23 0.23 0.24
0.96 0.92 0.85 0.80 0.72 0.64 0.58 0.57 0.52 0.50 0.45 0.41 0.32 0.27 0.26 0.24 0.21 0.20 0.19 0.19 0.18 0.17 0.22 0.33 0.44 0.55 0.64 0.73 0.74 0.70 0.61 0.55 0.52 0.49 0.44 0.38 0.33 0.30 0.29 0.29 0.27 0.25 0.25
1.09 1.01 0.97 0.86 0.76 0.72 0.68 0.69 0.67 0.65 0.57 0.52 0.44 0.39 0.36 0.33 0.28 0.25 0.22 0.20 0.22 0.22 0.23 0.28 0.38 0.50 0.65 0.80 0.91 0.94 0.85 0.72 0.62 0.58 0.55 0.51 0.46 0.41 0.39 0.39 0.37 0.34 0.32
1.19 1.18 1.14 1.07 0.94 0.89 0.84 0.77 0.73 0.71 0.64 0.59 0.55 0.50 0.46 0.42 0.38 0.35 0.33 0.30 0.28 0.25 0.24 0.28 0.35 0.44 0.57 0.73 0.93 1.07 1.08 0.95 0.78 0.69 0.63 0.61 0.60 0.60 0.58 0.56 0.52 0.46 0.42
1.27 1.22 1.14 1.14 1.16 1.05 0.94 0.88 0.79 0.73 0.66 0.63 0.64 0.59 0.54 0.51 0.46 0.43 0.42 0.41 0.40 0.38 0.35 0.34 0.32 0.33 0.40 0.53 0.70 0.94 1.11 1.09 0.94 0.82 0.75 0.72 0.72 0.72 0.68 0.63 0.60 0.55 0.51
1.32 1.26 1.17 1.16 1.19 1.14 0.98 0.90 0.84 0.80 0.72 0.72 0.71 0.64 0.59 0.55 0.53 0.50 0.46 0.45 0.44 0.44 0.43 0.40 0.37 0.36 0.36 0.41 0.52 0.72 0.94 1.07 1.07 0.98 0.89 0.83 0.79 0.77 0.77 0.77 0.72 0.68 0.65
1.39 1.41 1.32 1.27 1.27 1.20 1.10 1.07 1.07 0.98 0.89 0.90 0.86 0.68 0.57 0.54 0.52 0.50 0.48 0.46 0.42 0.41 0.39 0.38 0.38 0.36 0.36 0.38 0.43 0.54 0.74 0.95 1.08 1.12 1.06 1.00 0.95 0.90 0.91 0.94 0.92 0.89 0.84
1.55 1.52 1.52 1.50 1.44 1.34 1.26 1.20 1.18 1.12 1.03 1.06 1.05 0.98 0.74 0.57 0.49 0.46 0.46 0.44 0.44 0.44 0.40 0.39 0.39 0.37 0.34 0.34 0.38 0.44 0.55 0.74 0.96 1.16 1.25 1.20 1.13 1.09 1.10 1.12 1.14 1.12 1.08
1.76 1.63 1.57 1.64 1.60 1.49 1.39 1.34 1.29 1.24 1.22 1.22 1.18 1.22 0.98 0.69 0.54 0.49 0.46 0.43 0.44 0.48 0.49 0.48 0.44 0.40 0.35 0.32 0.33 0.38 0.43 0.51 0.72 1.02 1.25 1.31 1.28 1.25 1.31 1.36 1.40 1.40 1.36
1.87 1.80 1.72 1.67 1.69 1.65 1.52 1.47 1.44 1.37 1.33 1.28 1.25 1.13 1.04 0.88 0.79 0.62 0.49 0.47 0.46 0.44 0.46 0.48 0.47 0.46 0.45 0.43 0.42 0.42 0.43 0.44 0.55 0.82 1.16 1.39 1.47 1.50 1.55 1.59 1.66 1.72 1.70
1.90 1.82 1.77 1.67 1.58 1.57 1.56 1.55 1.51 1.46 1.34 1.23 1.18 1.12 1.06 0.90 0.77 0.73 0.57 0.46 0.47 0.45 0.45 0.47 0.50 0.51 0.51 0.51 0.49 0.53 0.57 0.55 0.62 0.78 1.05 1.35 1.58 1.73 1.83 1.86 1.83 1.81 1.80
1.95 1.87 1.80 1.71 1.57 1.47 1.43 1.43 1.46 1.45 1.42 1.32 1.23 1.17 1.12 1.03 0.89 0.85 0.79 0.62 0.55 0.50 0.50 0.52 0.52 0.52 0.54 0.56 0.60 0.74 0.74 0.75 0.82 0.96 1.18 1.44 1.63 1.76 1.87 1.97 2.03 2.00 1.91
1.77 1.77 1.74 1.71 1.63 1.55 1.56 1.53 1.50 1.43 1.41 1.38 1.31 1.22 1.16 1.06 0.95 0.94 0.96 0.82 0.69 0.56 0.53 0.55 0.58 0.61 0.64 0.68 0.74 0.93 0.92 0.95 0.99 1.11 1.33 1.51 1.57 1.60 1.65 1.80 1.99 2.10 2.10
1.65 1.66 1.63 1.58 1.57 1.50 1.46 1.46 1.46 1.44 1.43 1.39 1.33 1.25 1.14 1.04 1.00 1.01 1.05 1.09 1.03 0.82 0.68 0.65 0.66 0.73 0.81 0.88 1.03 1.16 1.02 1.15 1.17 1.25 1.41 1.58 1.52 1.40 1.36 1.46 1.64 1.81 1.87
1.56 1.55 1.56 1.47 1.42 1.38 1.33 1.32 1.30 1.25 1.26 1.26 1.22 1.21 1.16 1.08 1.08 1.10 1.16 1.27 1.42 1.33 1.04 0.83 0.84 0.88 0.95 1.05 1.24 1.16 1.06 1.28 1.30 1.28 1.32 1.32 1.26 1.19 1.18 1.20 1.27 1.38 1.45
1.28 1.34 1.37 1.35 1.31 1.31 1.27 1.24 1.18 1.11 1.08 1.04 1.02 1.05 1.08 1.08 1.10 1.12 1.19 1.27 1.39 1.48 1.33 0.97 0.86 0.90 1.02 1.11 1.29 1.19 1.12 1.29 1.24 1.23 1.21 1.15 1.08 1.05 1.04 1.04 1.02 1.04 1.10
1.04 1.11 1.19 1.24 1.22 1.21 1.21 1.17 1.10 1.04 0.99 0.94 0.91 0.94 0.95 0.95 1.02 1.05 1.09 1.18 1.29 1.43 1.48 1.21 1.03 1.02 1.09 1.11 1.12 1.02 0.97 0.98 0.97 1.06 1.00 0.95 0.91 0.89 0.88 0.90 0.91 0.92 0.92
0.93 0.96 0.94 0.95 1.00 1.03 1.05 1.07 1.03 0.98 0.93 0.89 0.86 0.87 0.88 0.90 0.97 1.02 1.09 1.16 1.22 1.30 1.35 1.25 1.05 0.96 0.91 0.86 0.85 0.82 0.76 0.73 0.72 0.85 0.82 0.77 0.74 0.71 0.68 0.70 0.74 0.77 0.77
0.76 0.82 0.82 0.80 0.78 0.76 0.80 0.86 0.90 0.92 0.91 0.87 0.87 0.89 0.90 0.93 0.97 1.01 1.08 1.14 1.15 1.13 1.12 1.05 0.91 0.77 0.71 0.67 0.69 0.68 0.64 0.63 0.60 0.68 0.71 0.68 0.65 0.61 0.57 0.57 0.59 0.62 0.64
0.50 0.54 0.57 0.61 0.65 0.65 0.64 0.66 0.71 0.78 0.85 0.89 0.90 0.92 0.94 1.02 1.09 1.12 1.13 1.12 1.09 1.05 0.99 0.94 0.85 0.74 0.65 0.58 0.59 0.62 0.62 0.58 0.55 0.52 0.59 0.60 0.60 0.58 0.54 0.49 0.45 0.45 0.50
0.30 0.34 0.39 0.43 0.48 0.51 0.55 0.58 0.60 0.65 0.70 0.77 0.86 0.93 0.98 1.07 1.10 1.05 0.96 0.89 0.84 0.83 0.82 0.82 0.76 0.66 0.58 0.53 0.51 0.48 0.49 0.51 0.52 0.49 0.49 0.49 0.48 0.46 0.44 0.46 0.45 0.44 0.45
0.24 0.27 0.30 0.34 0.39 0.43 0.56 0.57 0.53 0.56 0.65 0.70 0.74 0.79 0.85 0.90 0.85 0.81 0.76 0.71 0.71 0.75 0.74 0.68 0.60 0.51 0.42 0.37 0.37 0.42 0.49 0.57 0.58 0.45 0.45 0.47 0.45 0.46 0.41 0.39 0.44 0.45 0.45
0.29 0.31 0.32 0.34 0.38 0.46 0.57 0.57 0.62 0.59 0.63 0.67 0.66 0.63 0.61 0.60 0.60 0.52 0.54 0.54 0.55 0.57 0.53 0.49 0.47 0.40 0.35 0.33 0.40 0.48 0.50 0.51 0.44 0.34 0.41 0.50 0.47 0.45 0.39 0.38 0.45 0.43 0.45
0.47 0.47 0.48 0.49 0.51 0.59 0.66 0.62 0.61 0.56 0.55 0.54 0.50 0.45 0.42 0.41 0.41 0.42 0.44 0.46 0.40 0.36 0.34 0.31 0.29 0.28 0.30 0.35 0.44 0.53 0.53 0.54 0.48 0.41 0.43 0.52 0.45 0.42 0.38 0.37 0.42 0.41 0.43
0.72 0.72 0.73 0.71 0.69 0.67 0.62 0.52 0.46 0.41 0.39 0.36 0.33 0.31 0.30 0.30 0.35 0.40 0.40 0.39 0.37 0.34 0.34 0.34 0.34 0.34 0.37 0.41 0.46 0.52 0.61 0.72 0.66 0.49 0.41 0.43 0.39 0.36 0.38 0.39 0.41 0.45 0.45
0.69 0.67 0.66 0.63 0.57 0.51 0.44 0.36 0.31 0.27 0.25 0.23 0.23 0.24 0.27 0.29 0.38 0.46 0.41 0.39 0.39 0.35 0.35 0.38 0.37 0.35 0.34 0.35 0.41 0.41 0.47 0.71 0.73 0.56 0.34 0.36 0.40 0.46 0.58 0.43 0.39 0.44 0.47